Regional Weather Roundup
Issued by NWS

Home | Current Version | Previous Version | Text Only | Print | Product List | Glossary On
Versions: 1 2 3 4 5 6 7 8 9 10 11 12 13 14 15 16 17 18 19 20 21 22 23 24 25 26 27 28 29 30 31 32 33 34 35 36 37 38 39 40 41 42 43 44 45 46 47 48 49 50
000
ASUS43 KDTX 202110
RWRMI
MICHIGAN HOURLY REGIONAL WEATHER ROUNDUP
NATIONAL WEATHER SERVICE DETROIT/PONTIAC MI
400 PM EST THU NOV 20 2014

NOTE: "FAIR" INDICATES FEW OR NO CLOUDS BELOW 12,000 FEET WITH NO
SIGNIFICANT WEATHER AND/OR OBSTRUCTION TO VISIBILITY.

MIZ047>049-052>055-059>063-066>070-074>076-081>083-202200-
SOUTHEAST LOWER MICHIGAN

CITY           SKY/WX    TMP DP  RH WIND       PRES   REMARKS
ADRIAN         FLURRIES  24  12  60 W16G26    30.00R
ALMA           LGT SNOW  20  11  68 W15G24    29.95R
ANN ARBOR      MOCLDY    24  11  57 W18G25    29.96R
BAD AXE        PTCLDY    20  13  73 W14G22    29.88R
DETROIT CITY   CLOUDY    28  14  55 W17G25    29.95R
DETROIT        PTCLDY    25  10  53 SW21G31   29.97R
FLINT          CLOUDY    22  13  68 W15       29.94R
GROSSE ILE     MOCLDY    27  12  54 W20G26    29.96R
HILLSDALE      PTSUNNY   25  12  58 W13G22    29.97R
HOWELL         CLOUDY    23  13  67 W17G30    29.93R

CITY           SKY/WX    TMP DP  RH WIND       PRES   REMARKS
JACKSON        MOSUNNY   22  12  65 W15G26    29.96R
LAMBERTVILLE   PTSUNNY   27  18  69 W14G22    30.01R
LANSING        PTSUNNY   21  14  74 W21       29.97R BLWGSNOW
LAPEER         NOT AVBL
MASON          MOSUNNY   22  14  70 W17G23    29.96R
MONROE         PTCLDY    25  16  68 W16G25    29.98R
MT. CLEMENS    SNOW      23  19  86 NW21      29.91R VSB 1/2
PONTIAC        LGT SNOW  22  15  75 W14G24    29.91R BLWGSNOW
PORT HOPE        N/A     24   7  48 W12G24    29.84R
PORT HURON     MOCLDY    21  16  79 W10       29.93R
TRI CITIES     MOCLDY    24   6  46 W15G30    29.93R
YPSILANTI      FLURRIES  28  11  48 W22G32    29.97R
$$
MIZ043>046-050>051-056>058-064>065-071>073-077>080-202200-
SOUTHWEST LOWER MICHIGAN

CITY           SKY/WX    TMP DP  RH WIND       PRES   REMARKS
BATTLE CREEK   CLOUDY    24  12  60 W17       29.99R
BENTON HARBOR  PTSUNNY   25   8  48 W18G28    30.04R
BIG RAPIDS     MOSUNNY   19  12  72 W13G18    29.94R
COLDWATER      PTSUNNY   25  15  65 W20G31    29.99R HAZE
HOLLAND        CLOUDY    25  11  55 W12G26    30.01R
GRAND RAPIDS   LGT SNOW  21  14  74 W14G24    29.99R BLWGSNOW
KALAMAZOO      CLOUDY    23  12  62 NW13      30.01R HAZE
MARSHALL       MOSUNNY   22  11  62 W21       29.97R
MUSKEGON       FLURRIES  23   9  55 NW17G25   30.00R
$$
MIZ016>042-202200-
NORTHERN LOWER MICHIGAN

CITY           SKY/WX    TMP DP  RH WIND       PRES   REMARKS
BEAVER ISLAND  CLOUDY    23   9  55 W15G23    29.88R
BELLAIRE       FLURRIES  23   7  50 W9        29.91R
CADILLAC       LGT SNOW  16  11  80 W8G16     29.88R
CHARLEVOIX     LGT SNOW  21  12  68 W17G29    29.90R VSB 1
FRANKFORT      CLOUDY    20  10  64 NW14G22   29.94R
GAYLORD        LGT SNOW  15  10  80 W13G21    29.83R
GRAYLING       CLEAR     18   8  63 W14G21    29.86R
HARBOR SPRINGS CLOUDY    22   9  58 W12G24    29.86R HAZE
HOUGHTON LAKE  PTCLDY    17  10  74 W14       29.87R
MANISTEE       PTSUNNY   19   7  58 W18       29.96R
OSCODA         PTCLDY    22  12  64 W13G21    29.85R
PELLSTON       CLOUDY    21  11  65 W21       29.85R
TRAVERSE CITY  LGT SNOW  19  11  70 W12G22    29.92R
$$
MIZ007>008-015-202200-
EASTERN UPPER MICHIGAN

CITY           SKY/WX    TMP DP  RH WIND       PRES   REMARKS
KINROSS        CLOUDY    21  21 100 NW7       29.78R VSB 1/4
MACKINAC ISLAN CLOUDY    23  16  73 W21G32    29.81R
NEWBERRY       LGT SNOW  17  14  89 W15       29.84R VSB 1
S. S. MARIE    SNOW      21  17  84 N7        29.78R VSB 1/2
$$
MIZ004>006-011>014-085-202200-
CENTRAL UPPER MICHIGAN

CITY           SKY/WX    TMP DP  RH WIND       PRES   REMARKS
MANISTIQUE     PTCLDY    19   4  50 NW14G20   29.89R
ESCANABA       PTCLDY    18   3  53 W20G26    29.92R
MENOMINEE      CLOUDY    18   0  45 NW8G18    29.97R
SAWYER-GWINN   PTCLDY    14   0  52 W8        29.89R
$$
MIZ001>003-009>011-084-202200-
WESTERN UPPER MICHIGAN

CITY           SKY/WX    TMP DP  RH WIND       PRES   REMARKS
IRON MOUNTAIN  LGT SNOW  12   5  73 NW13      29.94R VSB 1   WCI  -3
HOUGHTON       LGT SNOW   9   2  73 NW17      29.92R VSB 3/4 WCI  -9
COPPER HARBOR    N/A     12   3  67 NW12G26   29.94R WCI  -2
IRONWOOD       CLOUDY     9   3  78 W17G25    29.96R VSB 3/4 WCI -10
$$

ABBREVIATIONS USED IN REMARKS
   TC - TEMPERATURE IN CELSIUS
  WCI - WIND CHILL INDEX
   HX - HEAT INDEX
  VSB - VISIBILITY



USA.gov is the U.S. government's official web portal to all federal, state and local government web resources and services.